Flag for Germany Weather past 2 weeks in Wedel, Schleswig-Holstein, Germany

Now
57 °F

Sprinkles. Partly sunny.


Feels Like: 54 °F
Forecast: 42 / 61 °F
Wind: 15 mph from Southwest

Location: Hamburg-Finkenwerder

Current Time: May 28, 2015 at 12:57:02 PM

Latest Report: May 28, 2015 at 12:20 PM


Visibility: 5 mi

Pressure: 29.83 "Hg

Humidity: 82%

Dew point: 52 °F

Location of WedelLocation

Historic Weather in Wedel — Graph

°F

Wedel temperature yesterday

Maximum temperature yesterday: 59 °F (at 2:20 PM)
Minimum temperature yesterday: 48 °F (at 6:20 AM)
Average temperature yesterday: 55 °F

Past Weeks' High & Low Weather Summary

 TemperatureHumidityPressure
High66 °F (May 22, 2:20 PM)100% (May 16, 5:20 PM)30.30 "Hg (May 16, 5:20 PM)
Low43 °F (May 21, 6:20 AM)45% (May 19, 3:20 PM)29.59 "Hg (May 19, 6:20 AM)
Average54 °F70%30.01 "Hg
* Reported May 13 11:20 AM — May 28 11:50 AM, Wedel, Weather by CustomWeather, © 2015

Note: Actual official high and low records may vary slightly from our data, if they occured in-between our weather recording intervals... More about our weather records

Advertising

Wedel weather history for previous 24 hours

 ConditionsComfort  
Time TempWeatherWind HumidityBarometerVisibility
11:50 AM
Thu, May 28
59 °FPartly sunny.15 mph68%29.83 "HgN/A
11:20 AM59 °FPartly sunny.15 mph68%29.83 "HgN/A
10:50 AM59 °FBroken clouds.16 mph68%29.83 "HgN/A
10:20 AM59 °FBroken clouds.17 mph63%29.83 "HgN/A
9:50 AM59 °FPartly sunny.18 mph63%29.83 "HgN/A
9:20 AM57 °FBroken clouds.16 mph63%29.83 "HgN/A
8:50 AM55 °FPassing clouds.13 mph63%29.86 "HgN/A
8:20 AM55 °FPassing clouds.13 mph63%29.86 "HgN/A
7:50 AM54 °FPassing clouds.10 mph63%29.86 "HgN/A
7:20 AM54 °FPartly sunny.10 mph63%29.86 "HgN/A
6:50 AM54 °FSunny.10 mph63%29.86 "Hg10 mi
6:20 AM54 °FSunny.12 mph63%29.89 "Hg10 mi
7:50 PM
Wed, May 27
57 °FPassing clouds.5 mph55%30.09 "HgN/A
7:20 PM59 °FSunny.7 mph55%30.09 "Hg10 mi
6:50 PM59 °FPartly sunny.8 mph51%30.09 "HgN/A
6:20 PM59 °FScattered clouds.12 mph51%30.09 "HgN/A
5:50 PM59 °FScattered clouds.14 mph51%30.12 "HgN/A
5:20 PM59 °FPartly sunny.10 mph51%30.12 "HgN/A
4:50 PM59 °FScattered clouds.13 mph48%30.12 "HgN/A
4:20 PM59 °FScattered clouds.14 mph51%30.12 "HgN/A
3:50 PM59 °FPartly sunny.14 mph51%30.12 "HgN/A
3:20 PM59 °FScattered clouds.14 mph59%30.12 "HgN/A
2:50 PM59 °FPassing clouds.14 mph55%30.12 "HgN/A
2:20 PM59 °FPassing clouds.17 mph51%30.15 "HgN/A
1:50 PM57 °FScattered clouds.17 mph51%30.15 "HgN/A
1:20 PM57 °FPartly sunny.21 mph59%30.15 "HgN/A
12:50 PM55 °FPartly sunny.18 mph55%30.15 "HgN/A
12:20 PM55 °FPartly sunny.20 mph59%30.15 "HgN/A
Weather by CustomWeather, © 2015

See weather overviewHow to use our weather pages